Regional Weather Roundup
Issued by NWS

Home | Current Version | Previous Version | Text Only | Print | Product List | Glossary On
Versions: 1 2 3 4 5 6 7 8 9 10 11 12 13 14 15 16 17 18 19 20 21 22 23 24 25 26 27 28 29 30 31 32 33 34 35 36 37 38 39 40 41 42 43 44 45 46 47 48 49 50
000
ASUS43 KDTX 302301
RWRMI
MICHIGAN HOURLY REGIONAL WEATHER ROUNDUP
NATIONAL WEATHER SERVICE DETROIT/PONTIAC MI
700 PM EDT SAT JUL 30 2016

NOTE: "FAIR" INDICATES FEW OR NO CLOUDS BELOW 12,000 FEET WITH NO
SIGNIFICANT WEATHER AND/OR OBSTRUCTION TO VISIBILITY.

MIZ047>049-052>055-059>063-066>070-074>076-081>083-310000-
SOUTHEAST LOWER MICHIGAN

CITY           SKY/WX    TMP DP  RH WIND       PRES   REMARKS
ADRIAN         TSTM      69  68  96 VRB3      29.97S FOG
ALMA           CLOUDY    69  67  92 N10       30.03S
ANN ARBOR      PTSUNNY   75  68  78 N12       29.96S
BAD AXE        DRIZZLE   68  61  77 N7        30.03F
CARO           LGT RAIN  67  65  93 N3        30.02R
DETROIT CITY   MOSUNNY   77  67  71 N9        29.96F
DETROIT        CLOUDY    78  66  66 NE9       29.95F
FLINT          CLOUDY    73  65  75 NE12      30.00F
GROSSE ILE     CLOUDY    76  68  75 NE8       29.93F
HILLSDALE      CLOUDY    74  69  86 CALM      29.96S
HOWELL         CLOUDY    72  67  86 N5        29.99F

CITY           SKY/WX    TMP DP  RH WIND       PRES   REMARKS
JACKSON        CLOUDY    73  69  87 NE9       29.97S
LAMBERTVILLE   CLOUDY    77  69  76 SE7       29.95S
LANSING        CLOUDY    70  63  78 NE12      30.00S
LAPEER         CLOUDY    72  64  78 NE7       30.00F
MASON          CLOUDY    71  65  82 NE9       29.98F
MONROE         CLOUDY    75  70  83 E7        29.94S
MT. CLEMENS    PTSUNNY   74  66  74 NE9       29.95S
PONTIAC        CLOUDY    73  66  78 NE9       29.98S
PORT HOPE        N/A     70  63  78 NE15      30.02R
PORT HURON     CLOUDY    72  64  78 N8        29.99S
TRI CITIES     LGT RAIN  67  66  97 NE9       30.03S
MIDLAND        DRIZZLE   66  64  91 NE6       30.03S
TROY           PTSUNNY   75  65  71 N8        29.99F
SAGINAW HB     LGT RAIN  68  64  88 N7        30.01S
$$
MIZ043>046-050>051-056>058-064>065-071>073-077>080-310000-
SOUTHWEST LOWER MICHIGAN

CITY           SKY/WX    TMP DP  RH WIND       PRES   REMARKS
BATTLE CREEK   CLOUDY    70  68  93 NE8       29.98F
BENTON HARBOR  PTSUNNY   75  65  70 NE7       29.96S
BIG RAPIDS     CLOUDY    72  65  79 E7        30.03S
COLDWATER      SUNNY     74  69  82 N8        29.96F
FREMONT        CLOUDY    73  67  82 E7        30.01S
HOLLAND        CLOUDY    72  64  76 NE6       30.00S
GRAND RAPIDS   CLOUDY    70  64  81 E8        30.01S
IONIA          CLOUDY    68  65  90 NE9       30.00S
KALAMAZOO      PTSUNNY   72  65  78 N10       29.98S
LUDINGTON      CLOUDY    73  64  71 E5        30.00F
MARSHALL       CLOUDY    73  68  86 N5        29.97S
MOUNT PLEASANT MIX PCPN  71  64  78 E7        30.02S
MUSKEGON       CLOUDY    74  65  73 NE10      30.00S
SOUTH HAVEN    SUNNY     73  66  79 NE6       29.98R
$$
MIZ016>042-310000-
NORTHERN LOWER MICHIGAN

CITY           SKY/WX    TMP DP  RH WIND       PRES   REMARKS
ALPENA         PTSUNNY   73  51  46 E6        30.06F
BEAVER ISLAND  SUNNY     75  54  47 NE8       30.06S
BELLAIRE       SUNNY     81  47  31 NE9       30.01S
CADILLAC       CLOUDY    70  60  70 SE7       30.05R
CHARLEVOIX     SUNNY     77  46  33 NE14      30.07R
FRANKFORT      SUNNY     77  56  48 N8        30.01S
GAYLORD        SUNNY     76  46  34 NE10      30.06S
GRAYLING       PTSUNNY   78  53  42 E8        30.04S
HARBOR SPRINGS SUNNY     76  48  37 NE14      30.05R
HOUGHTON LAKE  CLOUDY    71  59  65 SE10      30.05S
MANISTEE       CLOUDY    74  63  68 S3        30.01S
OSCODA         CLOUDY    71  57  61 NE8       30.05S
PELLSTON       CLOUDY    76  48  37 E15       30.07R
ROGERS CITY    CLOUDY    71  52  50 E6        30.07F
TRAVERSE CITY  PTSUNNY   82  54  37 N7        29.98S
$$
MIZ007>008-015-310000-
EASTERN UPPER MICHIGAN

CITY           SKY/WX    TMP DP  RH WIND       PRES   REMARKS
KINROSS        SUNNY     76  56  49 SE10      30.07S
MACKINAC ISLAN SUNNY     73  56  55 E7        30.07F
S. S. MARIE    SUNNY     77  53  43 SE6       30.06S
$$
MIZ004>006-011>014-085-310000-
CENTRAL UPPER MICHIGAN

CITY           SKY/WX    TMP DP  RH WIND       PRES   REMARKS
MANISTIQUE     SUNNY     75  54  48 E8        30.06S
ESCANABA       SUNNY     75  52  43 SE6       30.05S
MENOMINEE      SUNNY    N/A N/A N/A MISG        N/A
SAWYER-GWINN   MOSUNNY   73  54  49 E7        30.07S
$$
MIZ001>003-009>011-084-310000-
WESTERN UPPER MICHIGAN

CITY           SKY/WX    TMP DP  RH WIND       PRES   REMARKS
IRON MOUNTAIN  MOSUNNY   76  48  37 SE7       30.06S
HOUGHTON       MOSUNNY   74  52  46 E8        30.06S
COPPER HARBOR    N/A     75  54  47 VRB3      30.05S
IRONWOOD       SUNNY     77  61  57 NE7       30.00F
$$

ABBREVIATIONS USED IN REMARKS
   TC - TEMPERATURE IN CELSIUS
  WCI - WIND CHILL INDEX
   HX - HEAT INDEX
  VSB - VISIBILITY





USA.gov is the U.S. government's official web portal to all federal, state and local government web resources and services.